TimeCET,TemperatureF,Dew PointF,Humidity,Sea Level PressureIn,VisibilityMPH,Wind Direction,Wind SpeedMPH,Gust SpeedMPH,PrecipitationIn,Events,Conditions,WindDirDegrees,DateUTC
12:00 AM,26,25,94,,0,NNE,33.4,,,Fog,Heavy Fog,20,2013-11-24 23:00:00
12:55 AM,26.6,24.8,93,29.71,0.0,NNE,31.1,-,N/A,Fog,Light Freezing Fog,20,2013-11-24 23:55:00
1:00 AM,27,25,90,,0,NNE,31.1,,,Fog,Heavy Fog,20,2013-11-25 00:00:00
1:55 AM,26.6,24.8,93,29.71,0.0,NNE,35.7,-,N/A,Fog,Light Freezing Fog,20,2013-11-25 00:55:00
2:00 AM,27,25,88,,0,NNE,35.7,,,Fog,Heavy Fog,20,2013-11-25 01:00:00
2:55 AM,26.6,24.8,93,29.71,0.0,NNE,36.8,-,N/A,Fog,Light Freezing Fog,20,2013-11-25 01:55:00
3:00 AM,26,25,93,,0,NNE,36.8,,,Fog,Heavy Fog,20,2013-11-25 02:00:00
3:55 AM,26.6,24.8,93,29.71,0.0,NNE,33.4,-,N/A,Fog,Light Freezing Fog,20,2013-11-25 02:55:00
4:55 AM,26.6,24.8,93,29.71,6.2,NNE,25.3,-,N/A,,Scattered Clouds,20,2013-11-25 03:55:00
5:55 AM,26.6,23.0,86,29.74,6.2,NNE,16.1,-,N/A,,Partly Cloudy,20,2013-11-25 04:55:00
6:55 AM,26.6,24.8,93,29.74,-9999.0,NNE,17.3,-,N/A,,Clear,20,2013-11-25 05:55:00
7:00 AM,27,24,84,,31,NNE,17.3,,,,Partly Cloudy,20,2013-11-25 06:00:00
11:55 AM,23.0,23.0,100,29.71,0.0,North,38.0,-,N/A,Fog,Light Freezing Fog,350,2013-11-25 10:55:00
12:00 PM,24,22,91,,0,North,38.0,,,Fog,Heavy Fog,350,2013-11-25 11:00:00
12:55 PM,21.2,21.2,100,29.74,0.0,North,46.0,-,N/A,Fog,Light Freezing Fog,350,2013-11-25 11:55:00
1:00 PM,22,20,90,,0,North,46.0,,,Fog,Heavy Fog,350,2013-11-25 12:00:00
1:55 PM,21.2,19.4,93,29.74,0.0,North,41.4,-,N/A,Fog,Light Freezing Fog,350,2013-11-25 12:55:00
2:00 PM,21,19,90,,0,North,41.4,,,Fog,Heavy Fog,350,2013-11-25 13:00:00
2:55 PM,21.2,19.4,93,29.74,0.0,North,35.7,-,N/A,Fog,Light Freezing Fog,350,2013-11-25 13:55:00
3:00 PM,20,19,92,,0,North,35.7,,,Fog,Heavy Fog,350,2013-11-25 14:00:00
3:55 PM,19.4,17.6,93,29.74,0.0,North,39.1,-,N/A,Fog,Light Freezing Fog,350,2013-11-25 14:55:00
4:55 PM,19.4,17.6,93,29.77,0.0,North,36.8,-,N/A,Fog,Light Freezing Fog,350,2013-11-25 15:55:00
5:00 PM,19,17,91,,0,North,36.8,,,Fog,Heavy Fog,350,2013-11-25 16:00:00
5:55 PM,17.6,15.8,93,29.74,6.2,North,35.7,-,N/A,,Scattered Clouds,350,2013-11-25 16:55:00
6:55 PM,15.8,14.0,93,29.74,6.2,North,41.4,-,N/A,,Scattered Clouds,350,2013-11-25 17:55:00
7:00 PM,17,14,82,,19,North,41.4,,,,Partly Cloudy,350,2013-11-25 18:00:00
7:55 PM,14.0,10.4,86,29.74,6.2,North,39.1,-,N/A,,Scattered Clouds,350,2013-11-25 18:55:00
8:00 PM,15,11,77,,19,North,39.1,,,,Partly Cloudy,350,2013-11-25 19:00:00
8:55 PM,14.0,10.4,86,29.74,-9999.0,North,41.4,-,N/A,,Clear,350,2013-11-25 19:55:00
9:00 PM,14,10,76,,19,North,41.4,,,,,350,2013-11-25 20:00:00
9:55 PM,14.0,8.6,79,29.77,-9999.0,Calm,Calm,-,N/A,,Clear,360,2013-11-25 20:55:00
10:55 PM,12.2,6.8,79,29.77,-9999.0,North,43.7,-,N/A,,Clear,350,2013-11-25 21:55:00
11:55 PM,12.2,6.8,79,29.77,-9999.0,North,44.9,-,N/A,,Clear,350,2013-11-25 22:55:00